RH
52 56 59 37 28 40 39 46 41 42 71 84 95 97 90 97 98 99 88 64 49 63 80 90 95 91 45 23 24 15 10 9 9 8 7 8 6 8 9 8 8 11 12 11 11 10 11
47 58 61 60 38 26 22 24 66 53 62 77 89 88 65 80 98 92 100 95 82 57 68 75 75 78 23 19 22 13 11 11 10 9 8 8 8 10 11 9 9 10 11 10 9 9 9
42 48 56 62 62 44 45 32 28 45 63 61 52 49 40 59 97 100 100 99 89 79 96 69 68 33 18 21 18 12 16 12 11 10 9 9 9 11 11 10 10 11 10 11 10 10 11
28 32 40 50 61 62 54 53 51 55 47 36 34 40 49 59 69 67 62 61 64 62 58 42 22 18 18 20 17 17 16 14 13 12 11 11 11 13 12 11 11 11 11 11 10 10 10
16 21 24 33 46 55 62 56 56 58 57 49 37 37 51 48 53 58 56 48 36 32 26 28 24 23 20 17 17 18 18 19 17 13 12 12 12 13 13 13 12 12 13 11 11 11 10
11 10 14 20 24 34 47 61 63 57 45 51 48 40 34 39 40 46 48 48 44 38 30 29 24 22 19 17 17 21 24 22 18 15 14 14 14 14 14 14 13 13 13 12 12 11 11
44 36 16 12 12 20 25 40 51 56 42 44 42 44 40 42 42 47 46 48 41 37 36 24 23 19 15 17 18 24 26 25 20 15 14 14 13 14 15 15 14 13 12 12 12 12 12
23 32 43 40 18 11 16 23 34 44 49 35 42 40 43 45 47 47 46 43 36 30 27 26 26 18 17 17 18 24 26 25 19 14 13 14 15 14 16 16 16 15 14 13 11 10 10
19 16 16 35 45 24 11 13 22 28 40 40 31 33 35 36 39 38 34 33 29 24 33 31 25 19 20 21 22 23 21 18 17 14 14 14 15 17 18 17 16 14 12 10 10 9 9
16 14 13 21 33 42 25 10 12 20 28 36 30 29 27 28 32 33 34 33 32 28 28 30 26 26 24 26 26 24 23 19 18 18 19 18 17 17 17 15 14 12 12 10 10 12 13
13 12 11 12 32 33 37 25 10 11 18 22 32 26 23 22 22 21 23 31 31 26 50 26 27 25 27 25 23 23 22 20 19 18 17 17 17 16 14 12 12 12 12 12 13 13 14
10 11 11 11 22 30 29 34 41 11 10 14 19 22 23 20 19 20 18 17 19 23 30 28 27 27 23 23 22 22 20 19 19 19 19 16 15 13 13 12 12 13 14 14 14 13 30
9 10 10 11 10 20 24 28 32 38 11 8 10 15 18 18 17 17 17 15 16 27 28 26 25 21 20 21 21 20 19 18 16 16 14 14 13 13 14 15 16 17 16 13 34 46 51
9 9 9 9 10 10 17 22 25 27 34 13 12 8 10 15 16 16 14 13 20 27 29 24 21 18 17 17 16 15 14 14 13 13 12 12 17 15 17 18 17 18 17 16 31 34 28
8 8 8 8 8 8 10 14 20 17 25 37 33 34 7 10 8 10 11 13 19 22 23 22 19 20 17 17 16 15 14 14 14 14 14 15 16 18 19 19 19 22 22 20 20 29 40
8 8 8 8 7 7 7 10 12 16 25 33 37 36 29 6 9 9 9 17 21 18 19 17 19 18 18 18 18 16 16 17 16 16 14 14 15 16 17 20 20 21 22 27 22 24 28
8 7 8 8 8 7 7 8 9 14 28 32 37 37 37 7 8 10 9 15 21 21 21 21 20 20 18 17 16 15 17 17 16 15 15 15 14 16 14 14 15 20 22 20 22 28 31
7 8 8 8 8 7 10 18 14 20 26 27 36 38 39 17 7 10 11 16 17 22 22 22 20 19 20 18 17 16 15 14 11 10 12 13 14 12 12 11 14 18 17 21 20 23 31
8 8 8 8 8 8 7 21 32 30 29 31 28 35 35 35 13 12 14 16 18 16 17 16 15 15 15 15 16 15 15 13 12 11 12 12 13 11 12 17 17 19 15 19 23 28 35
10 9 9 9 10 9 7 8 22 30 28 27 32 32 35 37 38 40 17 17 19 19 17 15 14 13 13 13 14 14 11 10 8 9 10 11 11 10 8 8 10 11 11 15 27 46 30
11 10 10 10 10 10 9 10 9 13 21 26 30 36 34 37 39 42 42 47 31 16 13 12 12 12 13 12 10 10 10 11 10 10 10 13 14 14 14 19 28 33 44 50 48 44 40
12 11 11 10 10 10 12 20 19 16 17 21 28 32 37 35 36 42 46 46 44 56 59 53 40 23 15 13 12 11 12 14 16 16 20 29 29 38 48 56 62 58 51 50 51 54 61
13 12 12 12 13 16 23 28 31 34 34 32 31 31 34 39 38 41 47 49 49 50 49 51 64 68 65 61 55 52 48 42 37 40 55 68 71 74 75 72 66 60 41 46 46 48 51
29 31 29 29 29 28 31 33 32 33 36 40 41 41 40 37 38 41 44 51 56 57 57 54 50 50 55 61 64 67 74 77 81 84 85 81 76 78 80 77 87 54 54 54 54 57 57
43 34 26 35 43 44 40 39 39 41 42 41 46 48 48 47 40 39 41 44 48 57 62 64 63 61 58 55 56 54 52 50 48 55 73 88 92 84 82 87 66 56 54 54 54 54 55
47 40 30 35 43 47 46 47 49 48 47 52 52 57 56 54 44 42 41 40 41 46 51 56 64 73 75 74 75 73 62 57 59 60 57 62 74 91 95 96 92 64 61 64 64 70 68
36 40 44 42 43 43 43 42 44 50 53 56 60 64 64 61 54 47 45 45 44 45 49 52 57 63 72 76 84 87 82 74 70 67 64 63 71 90 100 97 83 75 72 76 78 75 73
36 50 52 51 48 44 38 32 32 33 37 47 59 64 65 64 60 55 52 52 61 66 60 67 70 61 72 76 86 87 90 87 84 81 77 76 75 81 95 98 90 83 82 76 83 86 82
54 54 52 50 37 23 22 17 8 8 11 15 26 46 60 61 59 60 56 54 56 58 63 71 82 94 93 89 92 96 94 97 90 92 84 83 76 81 88 91 96 90 95 95 97 97 96
Wind_Speed
30 33 36 37 36 35 30 25 18 17 17 20 21 18 20 15 20 22 12 16 13 15 11 18 6 15 23 24 22 29 29 28 27 25 23 22 23 23 22 23 22 17 15 12 11 11 10
27 28 31 34 35 35 32 28 25 16 16 17 20 22 23 22 16 16 19 13 18 16 13 13 11 16 21 25 19 27 28 28 28 24 22 22 23 19 20 21 20 17 13 13 12 12 12
26 27 27 28 31 33 34 33 29 24 20 20 23 20 21 27 25 25 21 17 12 12 5 13 21 22 23 20 19 27 27 28 27 24 22 22 22 18 20 18 18 12 14 13 13 13 13
24 25 26 26 26 27 28 30 32 32 30 26 24 21 25 30 31 34 34 29 23 19 17 18 21 23 22 12 25 27 28 28 26 24 23 22 21 15 17 15 17 13 13 13 13 13 14
23 23 24 25 25 24 24 25 26 28 28 27 25 24 22 25 26 25 25 25 26 23 19 19 18 17 14 16 23 27 28 27 26 25 23 21 20 14 16 13 14 14 8 13 12 12 13
24 24 22 22 23 23 23 23 23 27 27 25 23 24 23 22 22 22 19 20 19 22 20 19 15 11 13 20 23 26 27 26 26 25 23 21 18 15 14 14 9 9 13 10 11 11 13
28 27 25 24 21 20 21 22 22 23 23 23 24 20 20 18 18 18 18 17 18 17 12 13 12 9 18 18 21 22 23 25 24 24 23 20 17 15 14 13 10 7 7 8 11 13 16
30 31 30 27 24 21 18 18 19 20 22 22 18 16 17 15 13 12 11 11 16 24 23 17 16 18 16 17 19 18 21 22 23 22 20 19 14 13 11 10 8 8 9 10 12 14 17
26 28 29 31 28 24 20 17 16 16 16 17 18 20 21 20 18 20 22 19 22 22 24 20 18 16 15 14 16 17 19 19 20 19 17 16 12 10 9 7 7 8 9 10 12 15 19
22 23 25 27 30 28 22 20 17 15 13 11 13 13 14 16 17 16 18 16 16 16 13 15 13 14 14 14 13 14 14 18 18 15 14 9 7 8 8 7 7 8 9 10 12 13 8
19 21 23 24 25 28 28 21 19 16 12 10 8 7 6 8 10 9 6 5 8 8 5 7 8 13 16 7 16 13 14 13 12 14 9 7 9 8 7 7 8 8 9 11 13 15 16
17 18 20 21 22 24 28 27 21 16 15 10 8 6 3 3 5 8 7 2 4 3 4 7 10 13 10 14 12 14 11 11 11 10 8 6 6 6 7 7 8 8 9 12 14 12 3
15 16 18 19 19 19 22 25 26 22 13 14 11 7 5 3 4 6 9 3 3 6 10 10 13 13 10 12 12 11 11 11 6 7 8 6 6 6 6 7 8 9 7 4 4 2 4
16 16 15 17 19 20 19 21 23 25 20 14 12 10 7 5 5 6 8 5 6 6 6 13 14 12 9 11 9 10 10 8 6 5 7 6 3 8 8 9 7 5 5 3 5 2 4
15 17 17 17 16 17 19 20 20 21 21 17 12 10 8 7 5 5 5 6 5 9 15 14 11 7 8 5 6 6 6 6 5 5 3 4 4 5 7 7 6 4 6 5 4 5 3
14 15 16 17 18 18 17 18 19 20 21 19 14 9 7 7 6 4 4 7 9 14 14 11 4 4 4 6 5 4 4 2 4 5 5 4 3 7 8 8 9 9 5 2 5 1 4
13 15 16 17 18 18 18 18 18 21 24 20 16 9 11 7 7 6 5 10 13 13 11 6 5 6 6 5 4 3 2 2 3 3 4 5 6 5 5 5 7 8 9 8 5 4 3
12 14 15 16 17 17 17 17 17 19 22 23 19 13 13 8 6 8 9 10 11 9 6 4 4 4 4 5 4 4 5 4 3 3 4 6 5 4 7 9 10 11 11 11 6 4 7
13 13 15 16 17 17 15 14 16 19 21 23 23 19 18 12 9 11 11 11 8 6 5 4 2 2 1 2 2 4 4 5 6 6 3 4 4 2 3 6 10 12 11 12 15 16 14
15 12 14 15 16 17 17 14 13 15 17 20 20 17 14 14 11 8 7 6 4 4 2 1 0 1 2 2 4 3 2 4 4 5 7 8 10 11 9 9 12 15 17 14 15 12 16
14 14 13 15 15 14 14 15 13 13 14 16 18 18 16 15 12 9 6 4 5 4 3 2 1 3 4 3 4 7 8 9 10 10 10 10 11 14 14 16 20 22 22 22 27 30 30
16 16 14 14 17 17 15 13 14 14 14 15 15 16 14 14 12 9 7 5 3 2 3 5 7 7 6 6 7 10 10 10 11 11 11 13 13 16 21 19 21 28 27 27 30 33 38
19 19 18 15 14 17 16 15 13 15 15 15 14 14 13 12 11 8 6 4 4 4 4 5 6 7 8 9 11 12 13 14 15 14 14 16 16 15 11 13 14 22 26 21 19 20 19
18 19 18 19 16 15 16 17 17 16 16 17 17 16 16 14 12 12 9 6 6 6 7 8 9 10 10 12 13 14 16 17 19 20 21 22 20 15 12 18 3 10 9 12 14 20 24
18 21 23 22 22 21 20 23 23 22 19 17 17 18 17 16 15 13 11 14 11 10 11 11 12 13 14 14 16 12 13 16 17 22 26 26 22 11 7 8 21 25 23 18 17 14 14
26 23 24 25 25 25 24 25 25 24 24 23 21 18 17 17 14 14 15 13 13 15 15 14 15 16 16 17 15 9 6 7 7 6 7 14 22 23 11 7 5 6 10 13 17 20 24
29 28 27 27 28 28 28 28 26 25 25 24 24 23 20 19 18 15 17 19 19 19 20 17 18 19 20 20 20 17 16 18 10 10 11 14 17 26 28 15 14 18 21 16 11 13 14
30 30 31 31 31 30 29 27 27 27 27 25 26 27 26 25 23 24 24 19 14 13 18 20 22 21 18 16 14 14 12 13 15 19 15 15 10 10 12 11 11 13 12 10 12 14 19
33 33 31 31 29 29 27 26 25 26 27 27 26 27 28 28 26 26 26 28 29 28 26 26 23 23 12 11 9 8 13 14 14 10 12 14 17 15 14 10 18 25 24 27 28 31 30
Wind_Direction
34 35 33 32 29 27 26 24 22 25 34 22 33 42 25 52 156 133 151 154 167 184 202 229 171 193 179 179 175 180 175 169 165 166 178 188 187 180 182 188 189 200 201 203 210 220 232
30 32 32 34 35 34 33 29 29 25 28 29 27 48 51 46 129 144 150 141 161 173 195 231 264 197 178 173 175 174 170 166 159 162 173 180 182 172 185 186 188 199 202 209 218 229 242
29 26 29 30 36 39 39 43 42 41 44 47 50 57 66 66 88 109 123 116 129 153 159 170 181 184 169 166 173 167 167 160 152 159 171 176 175 174 180 186 190 202 207 216 224 235 248
31 29 25 26 29 37 41 41 42 39 43 52 54 61 81 86 78 76 83 90 98 119 146 150 149 156 156 166 166 165 162 153 149 158 167 172 172 171 181 181 190 201 210 223 235 244 257
27 26 27 24 23 26 34 36 37 36 37 43 54 61 74 81 82 85 92 105 112 126 125 120 126 138 149 162 163 164 156 146 151 159 165 169 172 176 179 185 185 200 216 225 244 251 260
33 28 24 25 22 20 25 28 32 37 40 40 42 58 63 75 82 82 79 87 99 106 107 108 117 124 145 158 163 162 152 149 154 160 165 168 172 176 183 187 192 206 227 238 249 259 263
37 35 30 26 25 21 19 26 26 38 46 50 53 51 60 63 70 77 82 86 97 99 98 109 113 126 143 154 163 158 154 153 159 164 168 170 174 181 191 198 209 216 233 250 260 271 277
40 36 32 30 26 26 25 22 24 27 28 46 51 57 64 65 65 63 74 96 104 101 91 97 106 130 140 153 155 151 153 156 164 165 169 171 178 186 198 208 224 243 258 269 280 284 290
35 32 30 31 30 27 28 28 26 29 39 40 50 65 74 73 76 94 101 110 104 106 97 99 106 118 133 145 146 147 154 159 161 166 170 177 179 189 202 217 234 252 265 276 285 294 296
29 29 29 29 29 30 27 32 31 35 37 39 61 75 71 77 84 92 104 106 106 102 94 94 108 120 134 136 141 146 152 156 156 163 158 170 165 192 210 227 244 262 272 283 292 301 297
26 28 29 31 31 31 33 31 34 35 37 37 29 66 62 70 74 77 84 114 129 108 71 123 126 137 144 154 149 145 152 155 162 165 169 163 184 200 215 233 249 266 277 288 295 295 296
19 24 27 28 32 34 33 34 33 32 37 36 33 11 36 25 32 39 37 85 143 118 81 136 141 143 153 148 155 149 149 154 152 159 173 166 181 202 227 241 253 267 283 296 291 282 265
17 18 19 21 26 29 32 32 32 31 27 36 35 21 15 346 353 9 18 46 103 64 129 137 144 144 143 148 148 149 152 157 157 157 170 180 203 223 232 245 258 264 283 299 328 355 225
11 17 22 17 14 17 23 26 28 27 28 28 26 33 29 350 339 352 13 56 68 111 122 140 140 140 144 143 144 152 156 163 163 160 157 195 215 226 239 240 249 259 236 222 225 246 285
7 11 13 20 20 16 10 15 20 19 19 21 15 19 27 29 7 358 34 68 99 115 133 139 137 133 134 131 144 150 161 168 181 191 195 193 219 226 241 246 241 246 217 230 252 284 304
357 9 11 13 16 16 17 11 15 15 13 16 20 26 21 39 38 45 49 101 119 131 137 135 126 141 136 137 131 138 152 174 216 220 217 231 241 242 248 253 250 236 226 212 221 205 275
354 358 4 8 12 12 12 14 17 18 13 14 19 33 26 38 58 62 91 113 125 137 141 139 123 135 144 149 141 156 155 194 219 228 231 243 241 252 244 243 249 239 233 229 229 236 196
348 351 356 2 4 9 10 14 20 27 27 19 21 40 30 38 51 84 97 119 130 131 123 116 126 131 155 169 180 200 219 221 215 224 240 237 249 246 255 260 254 249 244 231 217 217 222
334 346 348 353 354 359 4 7 14 22 27 31 34 33 27 33 59 73 94 111 119 119 128 128 141 163 202 227 238 245 249 253 256 261 263 240 234 233 262 259 255 253 259 254 246 249 238
321 336 337 343 347 348 350 354 356 2 13 23 29 31 36 31 47 48 57 74 108 131 148 151 291 287 268 247 241 248 259 266 261 262 262 263 250 244 251 281 281 273 276 266 244 236 248
305 314 321 325 330 336 343 342 347 349 359 11 24 30 36 36 34 31 53 38 7 352 343 320 310 271 265 262 268 261 262 264 267 271 266 263 267 270 273 277 282 282 278 273 264 271 257
295 299 304 313 318 323 334 341 340 346 350 355 6 15 21 26 29 32 21 15 353 318 309 310 308 304 303 291 276 284 289 288 283 280 277 278 279 287 287 284 283 282 280 273 269 265 266
293 298 302 307 313 314 317 321 330 332 335 341 346 348 358 2 6 9 9 360 338 317 309 304 295 291 283 281 281 282 282 283 278 278 280 279 278 286 287 288 282 283 288 277 274 266 271
286 291 295 300 303 303 304 304 308 313 318 325 325 325 328 332 336 335 325 323 309 302 293 292 287 285 283 283 282 281 276 272 270 269 265 265 271 274 277 291 252 275 281 281 269 279 286
280 287 292 294 294 292 292 296 299 301 301 301 308 309 311 314 310 313 311 316 308 302 298 289 286 283 283 286 293 292 289 286 277 265 259 258 257 258 260 241 277 278 280 286 279 280 274
281 282 284 287 291 292 290 288 290 291 292 296 296 296 293 301 298 291 296 292 295 299 300 294 285 283 285 282 282 263 257 272 258 255 255 256 250 237 242 253 246 280 282 282 279 281 279
278 283 283 284 285 286 287 286 284 284 283 285 287 288 287 285 286 284 287 288 286 286 286 288 291 291 290 284 274 264 260 251 252 239 251 247 244 235 239 245 266 267 267 274 274 273 262
275 280 282 281 281 281 280 281 281 280 280 281 283 284 284 282 281 278 280 276 275 283 290 289 292 287 279 267 265 262 254 246 250 251 254 255 251 242 233 234 265 265 267 252 251 257 262
275 275 279 280 278 276 275 276 277 279 280 280 279 280 280 281 277 278 279 279 280 282 282 281 277 276 262 255 241 252 258 258 257 265 261 264 262 262 247 267 270 280 289 284 271 281 284